Lexington Weather

Lexington, Massachusetts, USA

24°F
3/3/2021 3:50am 
  • Lexington Conditions: Overcast
  • Temperature: 24.1°F / -4.4°CWarmer 1.3°F than last hour.
  • Dew Point: 10.6°F 
  • Relative Humidity: 56%Decreased 3.0% since last hour.
  • Wind: Wind from SW SW 5 mph, 10-min avg: 2 mph, gust: 7 mph
  • Barometer: 29.85 inFalling 0.02  inHg/hr Falling Slowly
  • Visibility: 10 miles
  • Snow Today: 0.0 in
  •   

Regional Weather Roundup
for Boston / Norton, MA

        
000
ASUS41 KBOX 272005
RWRBOX

REGIONAL WEATHER ROUNDUP
NATIONAL WEATHER SERVICE BOSTON/NORTON MA
300 PM EST SAT FEB 27 2021

NOTE:  "FAIR" INDICATES FEW OR NO CLOUDS BELOW 12,000 FEET WITH NO 
SIGNIFICANT WEATHER AND/OR OBSTRUCTIONS TO VISIBILITY.

MAZALL-272100-
EASTERN MASSACHUSETTS
  
CITY           SKY/WX    TMP DP  RH WIND       PRES   REMARKS
BOSTON         LGT RAIN  45  45 100 S13       29.96F FOG              
BEVERLY        LGT RAIN  42  41  96 S3        29.96F FOG              
LAWRENCE       LGT RAIN  40  39  97 CALM      29.99F VSB 1            
BEDFORD        LGT RAIN  41  40  96 NW6       29.96F FOG              
BLUE HILL        N/A     45  45 100 S18G28    29.93F                  
NORWOOD        LGT RAIN  49  45  86 S6        29.96F FOG              
MARSHFIELD     CLOUDY    50  50 100 S14G28    29.96F FOG              
PLYMOUTH       LGT RAIN  48  45  89 S14G24    29.96F FOG              
TAUNTON        LGT RAIN  50  47  89 S13G24    29.96F FOG              
NEW BEDFORD    RAIN      50  47  89 S20G30    29.96F FOG              
$$

MAZALL-272100-
CAPE COD AND THE ISLANDS
  
CITY           SKY/WX    TMP DP  RH WIND       PRES   REMARKS
FALMOUTH       LGT RAIN  45  45 100 S25G37    29.98F VSB 1            
HYANNIS        LGT RAIN  47  45  93 S12G26    29.96F FOG              
CHATHAM        LGT RAIN  46  44  93 S15G30    30.00F FOG              
PROVINCETOWN   LGT RAIN  46  45  96 S21G33    29.97F                  
NANTUCKET      LGT RAIN  45  45 100 SE23      30.00F FOG              
MARTHAS VNYRD  LGT RAIN  47  45  93 S21G30    29.98F FOG              
$$
 
MAZALL-272100-
CENTRAL AND WESTERN MASSACHUSETTS
  
CITY           SKY/WX    TMP DP  RH WIND       PRES   REMARKS
WORCESTER      FOG       43  41  93 S7        29.94F VSB 1/4          
FITCHBURG      LGT RAIN  35  35 100 NW6       29.98F FOG     WCI  30  
ORANGE         FOG       37  37 100 CALM      29.96F VSB 1/4          
SPRINGFIELD    DRIZZLE   38  38 100 NW6       29.96S FOG              
WESTFIELD      CLOUDY    36  35  96 NE3       29.97F FOG              
NORTH ADAMS    CLOUDY    42  40  92 E8        29.94F                  
PITTSFIELD     FOG       39  38  96 N3        29.92F VSB 1/4          
$$
 
RIZALL-272100-
RHODE ISLAND
  
CITY           SKY/WX    TMP DP  RH WIND       PRES   REMARKS
PROVIDENCE     RAIN      48  47  96 S18G25    29.96F FOG              
NEWPORT        LGT RAIN  46  45  96 S22G32    29.96F FOG              
BLOCK ISLAND   CLOUDY    46  45  96 S20G28    29.97F FOG              
SMITHFIELD     LGT RAIN  46  46 100 S7        29.96F FOG              
WESTERLY       LGT RAIN  45  45 100 S16G23    29.96F FOG              
$$
 
CTZALL-272100-
CONNECTICUT
  
CITY           SKY/WX    TMP DP  RH WIND       PRES   REMARKS
BRADLEY INTL   DRZL/FOG  38  37  97 N3        29.97S VSB 3/4          
HARTFORD       FOG       43  41  93 N3        29.97S VSB 3/4          
BRIDGEPORT     FOG       48  46  93 W6        29.97S VSB 1/2          
DANBURY        CLOUDY    48  45  89 W9        29.99R FOG              
GROTON         LGT RAIN  46  46 100 SW16G26   29.95R FOG              
NEW HAVEN      FOG       47  47 100 CALM      29.96S VSB 1/2          
CHESTER        DRZL/FOG  48  48 100 SW9       29.96S VSB 1/2          
MERIDEN        CLOUDY    47  45  93 S3        29.96S FOG              
WILLIMANTIC    CLOUDY    47  46  97 CALM      29.96F FOG              
OXFORD         LGT RAIN  46  46 100 SW6       29.96F VSB 1/4          
$$

MEZ002-015-021-024-NHZ003-005-008-011-012-014-VTZ005-008-272100-
NORTHERN NEW ENGLAND
  
CITY           SKY/WX    TMP DP  RH WIND       PRES   REMARKS
PORTLAND ME    RAIN      39  39 100 SE7       30.03F FOG              
BANGOR ME      LGT SNOW  34  32  92 S10       30.08F VSB 1   WCI  26  
CONCORD NH     MIX PCPN  34  33  96 NW5       29.99F FOG     WCI  30  
MANCHESTER NH  LGT RAIN  36  34  92 CALM      29.96F VSB 1/2          
NASHUA NH      LGT RAIN  35  35 100 NW5       29.98F FOG     WCI  31  
PORTSMOUTH NH  LGT RAIN  40  39  97 SE7       29.98F VSB 1            
JAFFREY NH     FOG       37  35  92 CALM      29.95F VSB 1/2          
KEENE NH       MIX PCPN  37  36  96 CALM      29.97F VSB 3/4          
BURLINGTON VT  CLOUDY    39  35  86 S12G22    29.86F WCI  32          
MT. WASHINGTON SNOW      23  23 100 S58G68      N/A  VSB 0   WCI   0  
$$

NYZ052-076-272100-
EASTERN NEW YORK
  
CITY           SKY/WX    TMP DP  RH WIND       PRES   REMARKS
ALBANY         CLOUDY    40  39  97 SE12      29.94F                  
NEW YORK CITY  CLOUDY    51  46  83 W12G24    29.99R                  
$$
 
ANZALL-272100-
MARINE OBSERVATIONS
  
STATION/POSITION TIME  TEMP    WIND        PRES    VSBY  WAVE
                       AIR SEA DIR/SP/G                  HT/PER
                 (UTC) (F)     (DEG/KT/KT) (MB)    (MI)  (FT/S)
BOSTON BUOY      1950   41 39  160/ 19/ 23 1015.0F         4/ 5
BUZZARDS BAY     1900          150/ 27/ 29 1015.2F
NANTUCKET SOUND  1950      37  160/ 25/ 29   N/A           4/ 5
MASS BAY-STELLWA 1904   42     160/ 21/ 27 1014.4F  1 7/8  6/ 5
ISLE OF SHOALS   1900   41     150/ 20/ 22 1016.4F
S OF BLOCK IS    1926      40                N/A           9/ 7
$$

......................KEY.........................
  SKY/WX - SKY CONDITION/PRESENT WEATHER
  TMP    - TEMPERATURE IN FAHRENHEIT
  DWPT   - DEWPOINT IN FAHRENHEIT
  RH     - RELATIVE HUMIDITY IN PERCENT
  WIND   - DIRECTION AND SPEED IN MPH
  PRES   - MEAN SEA LEVEL PRESSURE IN INCHES OF HG
  WCI    - WIND CHILL INDEX
  VSB    - VISIBILITY IN MILES
  HX     - HEAT INDEX
  TC     - TEMPERATURE IN CELSIUS
  VRB    - VARIABLE WIND DIRECTION
  N/A    - NOT AVAILABLE
  
      

Other recent Regional Weather Roundups

Wed Mar 3, 3:04am

Wed Mar 3, 2:04am

Wed Mar 3, 1:04am

Wed Mar 3, 12:04am

Tue Mar 2, 11:04pm

Tue Mar 2, 10:05pm

Tue Mar 2, 9:04pm

Tue Mar 2, 8:04pm

Tue Mar 2, 7:04pm

Tue Mar 2, 6:04pm

Tue Mar 2, 5:04pm

Tue Mar 2, 4:05pm

Tue Mar 2, 3:04pm

Tue Mar 2, 2:04pm

Tue Mar 2, 1:04pm

Tue Mar 2, 12:04pm

Tue Mar 2, 11:04am

Tue Mar 2, 10:05am

Tue Mar 2, 9:04am

Tue Mar 2, 8:04am

Tue Mar 2, 7:04am

Tue Mar 2, 6:05am

Tue Mar 2, 5:04am

Tue Mar 2, 4:04am

Tue Mar 2, 3:04am

Tue Mar 2, 2:04am

Tue Mar 2, 1:04am

Tue Mar 2, 12:04am

Mon Mar 1, 11:04pm

Mon Mar 1, 10:04pm

Mon Mar 1, 9:04pm

Mon Mar 1, 8:04pm

Mon Mar 1, 7:04pm

Mon Mar 1, 6:04pm

Mon Mar 1, 5:04pm

Mon Mar 1, 4:05pm

Mon Mar 1, 3:05pm

Mon Mar 1, 2:04pm

Mon Mar 1, 1:04pm

Mon Mar 1, 12:04pm

Mon Mar 1, 11:04am

Mon Mar 1, 10:04am

Mon Mar 1, 9:04am

Mon Mar 1, 8:05am

Mon Mar 1, 7:04am

Mon Mar 1, 6:04am

Mon Mar 1, 5:04am

Mon Mar 1, 4:05am

Mon Mar 1, 3:04am

Mon Mar 1, 2:04am

Mon Mar 1, 1:04am

Mon Mar 1, 12:05am

Sun Feb 28, 11:04pm

Sun Feb 28, 10:04pm

Sun Feb 28, 9:04pm

Sun Feb 28, 8:04pm

Sun Feb 28, 7:04pm

Sun Feb 28, 6:05pm

Sun Feb 28, 5:04pm

Sun Feb 28, 4:05pm

Sun Feb 28, 3:04pm

Sun Feb 28, 2:04pm

Sun Feb 28, 1:04pm

Sun Feb 28, 12:04pm

Sun Feb 28, 11:04am

Sun Feb 28, 10:04am

Sun Feb 28, 9:04am

Sun Feb 28, 8:04am

Sun Feb 28, 7:04am

Sun Feb 28, 6:04am

Sun Feb 28, 5:04am

Sun Feb 28, 4:04am

Sun Feb 28, 3:04am

Sun Feb 28, 2:04am

Sun Feb 28, 1:04am

Sun Feb 28, 12:04am

Sat Feb 27, 11:04pm

Sat Feb 27, 10:04pm

Sat Feb 27, 9:04pm

Sat Feb 27, 8:04pm

Sat Feb 27, 7:04pm

Sat Feb 27, 6:04pm

Sat Feb 27, 5:04pm

Sat Feb 27, 4:04pm

Sat Feb 27, 2:05pm

Sat Feb 27, 1:04pm

Sat Feb 27, 12:04pm

Sat Feb 27, 11:04am

Sat Feb 27, 10:04am

Sat Feb 27, 9:05am

Sat Feb 27, 8:04am

Sat Feb 27, 7:04am

Sat Feb 27, 6:04am

Sat Feb 27, 5:04am

Sat Feb 27, 4:04am

Sat Feb 27, 3:04am

Sat Feb 27, 2:04am

Sat Feb 27, 1:04am

Sat Feb 27, 12:04am

Fri Feb 26, 11:04pm

Fri Feb 26, 10:04pm

Fri Feb 26, 9:04pm

Fri Feb 26, 8:04pm

Fri Feb 26, 7:04pm

Fri Feb 26, 6:04pm

Fri Feb 26, 5:04pm

Fri Feb 26, 4:04pm

Fri Feb 26, 3:04pm

Fri Feb 26, 2:04pm

Fri Feb 26, 1:04pm

Fri Feb 26, 12:04pm

Fri Feb 26, 11:04am

Fri Feb 26, 10:04am

Fri Feb 26, 9:04am

Fri Feb 26, 8:04am

Fri Feb 26, 7:04am

Fri Feb 26, 6:04am

Fri Feb 26, 5:04am

Fri Feb 26, 4:04am

Fri Feb 26, 3:04am

Fri Feb 26, 2:04am

Fri Feb 26, 1:04am

Fri Feb 26, 12:04am

Thu Feb 25, 11:04pm

Thu Feb 25, 10:04pm

Thu Feb 25, 9:04pm

Thu Feb 25, 8:05pm

Thu Feb 25, 7:05pm

Thu Feb 25, 6:04pm

Thu Feb 25, 5:04pm

Thu Feb 25, 4:05pm

Thu Feb 25, 3:05pm

Thu Feb 25, 2:04pm

Thu Feb 25, 1:04pm

Thu Feb 25, 12:05pm

Thu Feb 25, 11:04am

Thu Feb 25, 10:04am

Thu Feb 25, 9:04am

Thu Feb 25, 8:04am

Thu Feb 25, 7:04am

Thu Feb 25, 6:04am

Thu Feb 25, 5:04am

Thu Feb 25, 4:04am

Thu Feb 25, 3:04am

Thu Feb 25, 2:04am

Thu Feb 25, 1:04am

Thu Feb 25, 12:04am

Wed Feb 24, 11:04pm

Wed Feb 24, 10:05pm

Wed Feb 24, 9:04pm

Wed Feb 24, 8:04pm

Wed Feb 24, 7:04pm

Wed Feb 24, 6:04pm

Wed Feb 24, 5:04pm

Wed Feb 24, 4:04pm

Wed Feb 24, 3:04pm

Wed Feb 24, 2:05pm

Wed Feb 24, 1:05pm

Wed Feb 24, 12:05pm

Wed Feb 24, 11:04am

Wed Feb 24, 10:04am

Wed Feb 24, 9:04am

Wed Feb 24, 8:04am

Wed Feb 24, 7:04am

Wed Feb 24, 6:04am

Wed Feb 24, 5:04am

Wed Feb 24, 4:04am

Meta data:

ID: 403205f2-d1c5-47f1-80b4-775609d5551e
Link: https://api.weather.gov/products/403205f2-d1c5-47f1-80b4-775609d5551e